ABS-3A

Last updated on Sun Apr 12 2026 00:02:53 GMT+0000 (Coordinated Universal Time)

1 40424U 15010A 26101.30621615 -.00000025 00000+0 00000+0 0 9991 2 40424 0.0107 221.4433 0001487 110.6662 334.6778 1.00270131 40709
UTC large
Height (km)
Speed (km/s)
/
Latitude / Longitude
Inclination (degrees)
Orbital Period (minutes)
Azimuth
Elevation
Range (km)
Doppler Factor

Next 0 passes for location: London (51.5072 / 0.1276)

Sorry there are no passes over London.
ABS-3A